Location: Crab Orchard
(37.7292°N, 88.8042°W)
Time: 05:42:05
(UTC+00:00)

Okean 1 - Pass Details

Date: 08 December 2019
Orbit: 539 x 555 km, 82.5° (Epoch: 17 January)

Event Time Altitude Azimuth Distance (km) Brightness Sun altitude
Rises 23:39:20 0° 156° (SSE) 2,703 6.8 -12.2°
Reaches altitude 10° 23:41:50 10° 141° (SE) 1,812 5.8 -12.7°
Maximum altitude 23:44:57 22° 89° (E) 1,208 4.5 -13.3°
Enters shadow 23:45:32 22° 76° (ENE) 1,234 4.5 -13.4°
